When you browse on this site, cookies collect data to enhance your experience and personalize the content and advertising you see.
Visit our Privacy Policy to learn more. By continuing to use the site, you agree to this use of cookies and data.
  • In Lithuania
  • List of Countries
  • For 7 days
  • Water Temperature
  • Satellite Maps
  • Weather Map
  • Weather Widgets
  • user-avatar
    Login

    Hourly Weather Biskira

    Today, 22 April, Monday

    Time Temperature Precipitation Wind Pressure Humidity
    00:00 +27°C° 0 mm 4 mps 737 mmHg 15%
    01:00 +26°C° 0 mm 4 mps 737 mmHg 20%
    02:00 +25°C° 0 mm 3 mps 737 mmHg 25%
    03:00 +24°C° 0 mm 3 mps 737 mmHg 31%
    04:00 +22°C° 0 mm 3 mps 737 mmHg 36%
    05:00 +22°C° 0 mm 3 mps 737 mmHg 42%
    06:00 +21°C° 0 mm 3 mps 738 mmHg 47%
    07:00 +22°C° 0.1 mm 4 mps 738 mmHg 47%
    08:00 +22°C° 0.1 mm 5 mps 738 mmHg 46%
    09:00 +23°C° 0.1 mm 5 mps 739 mmHg 46%
    10:00 +23°C° 0.1 mm 6 mps 739 mmHg 44%
    11:00 +23°C° 0.1 mm 7 mps 739 mmHg 42%
    12:00 +23°C° 0.1 mm 8 mps 740 mmHg 40%
    13:00 +24°C° 0 mm 7 mps 740 mmHg 37%
    14:00 +24°C° 0 mm 6 mps 740 mmHg 35%
    15:00 +26°C° 0 mm 5 mps 740 mmHg 33%
    16:00 +26°C° 0 mm 5 mps 741 mmHg 32%
    17:00 +26°C° 0 mm 5 mps 741 mmHg 31%
    18:00 +25°C° 0 mm 5 mps 741 mmHg 30%
    19:00 +25°C° 0 mm 5 mps 742 mmHg 32%
    20:00 +23°C° 0 mm 4 mps 742 mmHg 34%
    21:00 +22°C° 0 mm 4 mps 743 mmHg 36%
    22:00 +21°C° 0 mm 4 mps 743 mmHg 40%
    23:00 +20°C° 0 mm 4 mps 743 mmHg 43%

    Tomorrow, 23 April, Tuesday

    Time Temperature Precipitation Wind Pressure Humidity
    00:00 +20°C° 0 mm 4 mps 744 mmHg 46%
    01:00 +19°C° 0 mm 4 mps 744 mmHg 48%
    02:00 +19°C° 0 mm 3 mps 744 mmHg 49%
    03:00 +18°C° 0 mm 3 mps 743 mmHg 51%
    04:00 +18°C° 0 mm 2 mps 744 mmHg 50%
    05:00 +18°C° 0 mm 2 mps 744 mmHg 50%
    06:00 +19°C° 0 mm 1 mps 745 mmHg 50%
    07:00 +20°C° 0 mm 1 mps 745 mmHg 47%
    08:00 +21°C° 0 mm 1 mps 745 mmHg 43%
    09:00 +22°C° 0 mm 1 mps 746 mmHg 39%
    10:00 +23°C° 0 mm 1 mps 745 mmHg 37%
    11:00 +24°C° 0 mm 2 mps 745 mmHg 34%
    12:00 +25°C° 0 mm 2 mps 745 mmHg 31%
    13:00 +26°C° 0 mm 2 mps 745 mmHg 29%
    14:00 +27°C° 0 mm 3 mps 745 mmHg 26%
    15:00 +28°C° 0 mm 3 mps 745 mmHg 23%
    16:00 +28°C° 0 mm 3 mps 745 mmHg 21%
    17:00 +28°C° 0 mm 4 mps 745 mmHg 20%
    18:00 +29°C° 0 mm 4 mps 745 mmHg 19%
    19:00 +28°C° 0 mm 5 mps 745 mmHg 21%
    20:00 +27°C° 0 mm 6 mps 746 mmHg 24%
    21:00 +26°C° 0 mm 7 mps 746 mmHg 26%
    22:00 +26°C° 0 mm 7 mps 746 mmHg 26%
    23:00 +24°C° 0 mm 7 mps 746 mmHg 26%

    Day after tomorrow, 24 April, Wednesday

    Time Temperature Precipitation Wind Pressure Humidity
    00:00 +24°C° 0 mm 7 mps 746 mmHg 26%
    01:00 +24°C° 0 mm 6 mps 746 mmHg 26%
    02:00 +24°C° 0 mm 6 mps 746 mmHg 26%
    03:00 +25°C° 0 mm 5 mps 746 mmHg 26%
    04:00 +23°C° 0 mm 5 mps 746 mmHg 26%
    05:00 +23°C° 0 mm 6 mps 747 mmHg 26%
    06:00 +23°C° 0 mm 6 mps 747 mmHg 26%
    07:00 +26°C° 0 mm 7 mps 747 mmHg 23%
    08:00 +28°C° 0 mm 9 mps 747 mmHg 20%
    09:00 +31°C° 0 mm 10 mps 748 mmHg 16%
    10:00 +32°C° 0 mm 10 mps 748 mmHg 16%
    11:00 +33°C° 0 mm 9 mps 747 mmHg 15%
    12:00 +34°C° 0 mm 9 mps 747 mmHg 14%
    13:00 +34°C° 0 mm 8 mps 747 mmHg 14%
    14:00 +35°C° 0 mm 8 mps 747 mmHg 14%
    15:00 +35°C° 0 mm 7 mps 746 mmHg 14%
    16:00 +34°C° 0 mm 6 mps 747 mmHg 16%
    17:00 +33°C° 0 mm 5 mps 747 mmHg 17%
    18:00 +33°C° 0 mm 4 mps 747 mmHg 18%
    19:00 +30°C° 0 mm 4 mps 748 mmHg 21%
    20:00 +29°C° 0 mm 4 mps 748 mmHg 23%
    21:00 +28°C° 0 mm 3 mps 749 mmHg 25%
    22:00 +27°C° 0 mm 3 mps 749 mmHg 29%
    23:00 +26°C° 0 mm 2 mps 749 mmHg 33%

    25 April, Thursday

    Time Temperature Precipitation Wind Pressure Humidity
    00:00 +26°C° 0 mm 2 mps 750 mmHg 37%
    01:00 +25°C° 0 mm 2 mps 750 mmHg 38%
    02:00 +25°C° 0 mm 2 mps 750 mmHg 40%
    03:00 +24°C° 0 mm 2 mps 750 mmHg 41%
    04:00 +24°C° 0 mm 2 mps 750 mmHg 42%
    05:00 +24°C° 0 mm 3 mps 751 mmHg 43%
    06:00 +24°C° 0 mm 3 mps 751 mmHg 44%
    07:00 +25°C° 0 mm 3 mps 752 mmHg 39%
    08:00 +27°C° 0 mm 3 mps 752 mmHg 34%
    09:00 +28°C° 0 mm 2 mps 752 mmHg 29%
    10:00 +30°C° 0 mm 2 mps 752 mmHg 26%
    11:00 +31°C° 0 mm 1 mps 752 mmHg 23%
    12:00 +32°C° 0 mm 1 mps 752 mmHg 20%
    13:00 +33°C° 0 mm 1 mps 751 mmHg 18%
    14:00 +34°C° 0 mm 2 mps 751 mmHg 17%
    15:00 +35°C° 0 mm 2 mps 751 mmHg 15%
    16:00 +35°C° 0 mm 2 mps 751 mmHg 16%
    17:00 +34°C° 0 mm 2 mps 751 mmHg 16%
    18:00 +34°C° 0 mm 2 mps 751 mmHg 17%
    19:00 +32°C° 0 mm 2 mps 752 mmHg 18%
    20:00 +31°C° 0 mm 1 mps 753 mmHg 20%
    21:00 +30°C° 0 mm 1 mps 753 mmHg 21%
    22:00 +29°C° 0 mm 2 mps 754 mmHg 21%
    23:00 +29°C° 0 mm 2 mps 754 mmHg 20%

    26 April, Friday

    Time Temperature Precipitation Wind Pressure Humidity
    00:00 +29°C° 0 mm 3 mps 754 mmHg 19%
    01:00 +28°C° 0 mm 3 mps 754 mmHg 25%
    02:00 +27°C° 0 mm 3 mps 754 mmHg 31%
    03:00 +26°C° 0 mm 3 mps 754 mmHg 36%
    04:00 +26°C° 0 mm 3 mps 754 mmHg 38%
    05:00 +26°C° 0 mm 2 mps 755 mmHg 41%
    06:00 +25°C° 0 mm 1 mps 755 mmHg 43%
    07:00 +27°C° 0 mm 2 mps 755 mmHg 39%
    08:00 +28°C° 0 mm 2 mps 756 mmHg 35%
    09:00 +30°C° 0 mm 3 mps 756 mmHg 31%
    10:00 +31°C° 0 mm 3 mps 756 mmHg 28%
    11:00 +33°C° 0 mm 3 mps 756 mmHg 25%
    12:00 +34°C° 0 mm 2 mps 755 mmHg 21%
    13:00 +35°C° 0 mm 2 mps 755 mmHg 20%
    14:00 +35°C° 0 mm 2 mps 755 mmHg 18%
    15:00 +36°C° 0 mm 2 mps 754 mmHg 17%
    16:00 +35°C° 0 mm 2 mps 754 mmHg 17%
    17:00 +35°C° 0 mm 2 mps 755 mmHg 17%
    18:00 +35°C° 0 mm 2 mps 755 mmHg 17%
    19:00 +34°C° 0 mm 3 mps 756 mmHg 21%
    20:00 +33°C° 0 mm 3 mps 757 mmHg 25%
    21:00 +30°C° 0 mm 3 mps 757 mmHg 29%
    22:00 +29°C° 0 mm 3 mps 757 mmHg 33%
    23:00 +28°C° 0 mm 3 mps 758 mmHg 37%

    27 April, Saturday

    Time Temperature Precipitation Wind Pressure Humidity
    00:00 +27°C° 0 mm 3 mps 758 mmHg 41%
    01:00 +26°C° 0 mm 3 mps 758 mmHg 44%
    02:00 +26°C° 0 mm 2 mps 758 mmHg 46%
    03:00 +25°C° 0 mm 1 mps 758 mmHg 48%
    04:00 +25°C° 0 mm 1 mps 758 mmHg 47%
    05:00 +25°C° 0 mm 2 mps 758 mmHg 47%
    06:00 +25°C° 0 mm 2 mps 759 mmHg 46%
    07:00 +26°C° 0 mm 2 mps 759 mmHg 43%
    08:00 +27°C° 0 mm 2 mps 759 mmHg 40%
    09:00 +28°C° 0 mm 2 mps 759 mmHg 37%
    10:00 +29°C° 0 mm 3 mps 759 mmHg 34%
    11:00 +30°C° 0 mm 3 mps 758 mmHg 32%
    12:00 +31°C° 0 mm 3 mps 758 mmHg 29%
    13:00 +31°C° 0 mm 3 mps 757 mmHg 27%
    14:00 +33°C° 0 mm 3 mps 757 mmHg 25%
    15:00 +34°C° 0 mm 4 mps 756 mmHg 22%
    16:00 +34°C° 0 mm 3 mps 757 mmHg 21%
    17:00 +34°C° 0 mm 3 mps 757 mmHg 20%
    18:00 +33°C° 0 mm 3 mps 757 mmHg 19%
    19:00 +31°C° 0 mm 3 mps 757 mmHg 22%
    20:00 +30°C° 0 mm 2 mps 758 mmHg 25%
    21:00 +29°C° 0 mm 2 mps 758 mmHg 28%
    22:00 +29°C° 0 mm 3 mps 758 mmHg 29%
    23:00 +28°C° 0 mm 4 mps 758 mmHg 30%
    Show more